Weather History for Bolton Field, OH

Change the Weather History Date:

Saturday, December 7, 2013

  Actual Average Record
Temperature  
Mean Temperature 19 °F -  
Max Temperature 26 °F 42 °F 68 °F (1998)
Min Temperature 12 °F 30 °F 12 °F (2005)
Degree Days  
Heating Degree Days 46    
Moisture  
Dew Point 16 °F    
Average Humidity 83    
Maximum Humidity 93    
Minimum Humidity 59    
Precipitation  
Precipitation 0.00 in - - ()
Sea Level Pressure  
Sea Level Pressure 30.49 in    
Wind  
Wind Speed 7 mph (NNW)    
Max Wind Speed 10 mph    
Max Gust Speed 16 mph    
Visibility 10 miles    
Events      
Averages and records for this station are not official NWS values.
T = Trace of Precipitation, MM = Missing Value Source: NWS Daily Summary

Daily Weather History Graph

Daily Weather History Graph

Search for Another Location

Airport:

Trip Planner

Search our weather history database for the weather conditions in past years. The results will help you decide how hot, cold, wet, or windy it might be!

Date:

Astronomy

Dec. 07, 2013 Rise Set
Actual Time 7:40 AM EST 5:07 PM EST
Civil Twilight 7:10 AM EST 5:37 PM EST
Nautical Twilight 6:36 AM EST 6:11 PM EST
Astronomical Twilight 6:03 AM EST 6:44 PM EST
Moon 11:25 AM EST (12/7) 10:47 PM EST (12/7)
Length of Visible Light 10h 27m
Length of Day
9h 26m
Waxing Crescent, 29% of the Moon is Illuminated
Dec 7
Waxing Crescent
Dec 9
First Quarter
Dec 17
Full
Dec 25
Last Quarter
Jan 1
New

Hourly Weather History & Observations

Time (EST) Temp. Windchill Dew Point Humidity Pressure Visibility Wind Dir Wind Speed Gust Speed Precip Events Conditions
12:15 AM 26.1 °F 18.4 °F 24.3 °F 93% 30.36 in 7.0 mi NNW 6.9 mph - N/A   Overcast
12:35 AM 26.1 °F 20.5 °F 23.9 °F 92% 30.35 in 10.0 mi NNW 4.6 mph - N/A   Overcast
12:55 AM 26.1 °F 18.4 °F 23.9 °F 92% 30.35 in 10.0 mi NW 6.9 mph - N/A   Overcast
1:15 AM 25.7 °F 17.1 °F 23.7 °F 92% 30.35 in 10.0 mi NW 8.1 mph - N/A   Overcast
1:35 AM 25.7 °F 17.1 °F 23.4 °F 91% 30.35 in 10.0 mi NNW 8.1 mph - N/A   Overcast
1:55 AM 25.5 °F 16.9 °F 22.5 °F 88% 30.36 in 10.0 mi NW 8.1 mph - N/A   Overcast
2:15 AM 25.5 °F 17.8 °F 22.6 °F 89% 30.37 in 10.0 mi NW 6.9 mph - N/A   Overcast
2:35 AM 24.8 °F 16.1 °F 22.1 °F 89% 30.38 in 10.0 mi NW 8.1 mph - N/A   Overcast
2:55 AM 24.8 °F 16.9 °F 22.6 °F 91% 30.39 in 10.0 mi NW 6.9 mph - N/A   Overcast
3:15 AM 25.2 °F 17.3 °F 22.8 °F 91% 30.39 in 10.0 mi NW 6.9 mph - N/A   Overcast
3:35 AM 25.2 °F 17.3 °F 22.8 °F 91% 30.40 in 10.0 mi NW 6.9 mph - N/A   Overcast
3:55 AM 25.3 °F 17.6 °F 22.8 °F 90% 30.41 in 10.0 mi NW 6.9 mph - N/A   Overcast
4:15 AM 25.5 °F 16.9 °F 22.8 °F 89% 30.41 in 10.0 mi NNW 8.1 mph - N/A   Overcast
4:35 AM 25.5 °F 16.2 °F 21.4 °F 84% 30.42 in 10.0 mi NW 9.2 mph - N/A   Overcast
4:55 AM 25.5 °F 15.5 °F 20.1 °F 80% 30.43 in 10.0 mi NW 10.4 mph 16.1 mph N/A   Overcast
5:15 AM 25.3 °F 16.0 °F 19.9 °F 80% 30.44 in 10.0 mi NW 9.2 mph - N/A   Overcast
5:35 AM 25.2 °F 15.1 °F 20.1 °F 81% 30.45 in 10.0 mi NNW 10.4 mph - N/A   Overcast
5:55 AM 24.8 °F 16.1 °F 19.4 °F 80% 30.45 in 10.0 mi NNW 8.1 mph - N/A   Overcast
6:15 AM 24.6 °F 15.8 °F 19.4 °F 81% 30.47 in 10.0 mi NW 8.1 mph - N/A   Overcast
7:30 AM 21.2 °F 12.6 °F 17.6 °F 86% 30.50 in 10.0 mi NW 6.9 mph - N/A   Overcast
7:50 AM 21.2 °F 14.9 °F 17.6 °F 86% 30.51 in 10.0 mi NW 4.6 mph - N/A   Overcast
8:50 AM 23.0 °F 12.4 °F 15.8 °F 74% 30.53 in 10.0 mi North 10.4 mph - N/A   Mostly Cloudy
9:55 AM 23.0 °F 13.1 °F 12.2 °F 63% 30.56 in 10.0 mi NNE 9.2 mph - N/A   Clear
10:50 AM 24.8 °F 16.9 °F 12.2 °F 59% 30.57 in 10.0 mi North 6.9 mph - N/A   Clear
12:58 PM 24.8 °F 16.9 °F 12.2 °F 59% 30.54 in 10.0 mi NW 6.9 mph - N/A   Clear
1:47 PM 24.8 °F 17.9 °F 12.2 °F 59% 30.54 in 10.0 mi NW 5.8 mph - N/A   Clear
2:47 PM 24.8 °F 15.3 °F 12.2 °F 59% 30.53 in 10.0 mi WNW 9.2 mph - N/A   Scattered Clouds
3:50 PM 24.8 °F 16.1 °F 12.2 °F 59% 30.53 in 10.0 mi NW 8.1 mph - N/A   Clear
4:47 PM 23.0 °F 17.0 °F 12.2 °F 63% 30.55 in 10.0 mi NW 4.6 mph - N/A   Scattered Clouds
5:47 PM 21.2 °F 16.4 °F 12.2 °F 68% 30.56 in 10.0 mi NW 3.5 mph - N/A   Clear
6:35 PM 19.0 °F 13.9 °F 13.6 °F 79% 30.57 in 10.0 mi NW 3.5 mph - N/A   Clear
6:47 PM 17.6 °F - 12.2 °F 79% 30.57 in 10.0 mi Calm Calm - N/A   Clear
6:55 PM 17.2 °F - 12.9 °F 83% 30.57 in 10.0 mi North - - N/A   Clear
7:15 PM 16.7 °F - 12.9 °F 85% 30.57 in 10.0 mi North - - N/A   Clear
7:35 PM 13.8 °F - 9.9 °F 84% 30.58 in 10.0 mi North - - N/A   Clear
7:55 PM 14.2 °F - 11.8 °F 90% 30.57 in 10.0 mi North - - N/A   Clear
8:15 PM 14.7 °F - 12.7 °F 92% 30.58 in 10.0 mi North - - N/A   Clear
8:35 PM 13.5 °F - 11.8 °F 93% 30.58 in 7.0 mi North - - N/A   Clear
8:55 PM 14.4 °F - 12.4 °F 92% 30.57 in 7.0 mi North - - N/A   Clear
9:15 PM 14.9 °F - 12.9 °F 92% 30.57 in 10.0 mi North - - N/A   Clear
9:35 PM 14.9 °F - 12.9 °F 92% 30.57 in 10.0 mi North - - N/A   Clear
9:55 PM 13.1 °F - 10.9 °F 91% 30.57 in 7.0 mi North - - N/A   Clear
10:15 PM 12.7 °F - 10.2 °F 90% 30.57 in 7.0 mi North - - N/A   Clear
10:35 PM 12.7 °F - 10.6 °F 91% 30.57 in 7.0 mi North - - N/A   Clear
10:55 PM 14.4 °F 5.5 °F 12.2 °F 91% 30.56 in 10.0 mi NNE 5.8 mph - N/A   Clear
11:15 PM 14.4 °F 6.9 °F 11.3 °F 88% 30.55 in 10.0 mi NNE 4.6 mph - N/A   Clear
11:35 PM 16.5 °F 9.4 °F 12.6 °F 84% 30.56 in 10.0 mi NNE 4.6 mph - N/A   Clear
11:55 PM 16.9 °F 11.5 °F 13.1 °F 85% 30.54 in 10.0 mi NE 3.5 mph - N/A   Clear